FW6482 Weather Reports


time (UTC)temp
F
wind
direction
speed
knots
gust
knots
rain 1hr
in
rain 24hr
in
rain mn
in
humidity
%
barometer
mb
20260901040050 56 244 2.6 4.3 0.00 0.50 0.01 92 1016.5
20260901034544 57 243 3.5 7.0 0.00 0.50 0.01 92 1016.3
20260901033056 57 231 2.6 6.1 0.00 0.50 0.01 92 1016.2
20260901031542 57 244 3.5 6.1 0.00 0.50 0.01 92 1016.1
20260901030047 57 242 3.5 7.0 0.00 0.50 0.01 92 1016.1
20260901024541 57 248 2.6 4.3 0.00 0.50 0.01 92 1016.1
20260901023045 57 250 2.6 6.1 0.00 0.50 0.01 92 1016.2
20260901021556 57 250 3.5 7.0 0.00 0.50 0.01 92 1016.0
20260901020038 57 243 3.5 7.0 0.00 0.50 0.01 92 1016.0
20260901014536 57 247 2.6 6.1 0.00 0.50 0.01 92 1015.8
20260901013046 57 248 2.6 6.1 0.00 0.50 0.01 92 1015.7
20260901011540 57 244 2.6 7.0 0.00 0.50 0.01 93 1015.6
20260901010032 57 243 4.3 7.8 0.00 0.50 0.01 93 1015.5
20260901004528 57 254 3.5 7.8 0.00 0.50 0.01 93 1015.5
20260901003037 58 263 4.3 7.8 0.00 0.50 0.01 93 1015.6
20260901001527 58 252 4.3 7.8 0.00 0.50 0.01 93 1015.6
20260901000031 58 242 3.5 6.1 0.00 0.50 0.01 93 1015.6
20260831234523 58 242 2.6 4.3 0.00 0.50 0.01 93 1015.7
20260831233022 58 242 2.6 4.3 0.00 0.50 0.01 93 1015.7
20260831231521 58 242 2.6 3.5 0.01 0.50 0.01 93 1015.7
20260831230021 59 242 2.6 4.3 0.01 0.50 0.01 93 1015.7
20260831224520 59 242 1.7 3.5 0.01 0.50 0.01 93 1015.7
20260831223023 59 242 2.6 9.6 0.00 0.49 0.00 93 1015.7
20260831221518 58 236 4.3 10.4 0.00 0.49 0.00 93 1015.7
20260831220022 58 238 3.5 7.0 0.00 0.49 0.00 92 1015.6
20260831214512 58 239 3.5 7.0 0.00 0.49 0.49 92 1015.4
20260831213011 58 246 3.5 7.0 0.00 0.49 0.49 92 1015.3
20260831211510 58 236 3.5 7.8 0.00 0.49 0.49 92 1015.2
20260831210008 58 252 3.5 6.1 0.00 0.49 0.49 92 1015.1
20260831204506 58 244 1.7 4.3 0.00 0.49 0.49 92 1014.9
20260831203004 58 246 2.6 6.1 0.00 0.49 0.49 92 1014.8
20260831201502 58 245 1.7 6.1 0.00 0.49 0.49 92 1014.7
20260831200000 59 247 2.6 6.1 0.00 0.49 0.49 91 1014.5
20260831194612 59 248 2.6 6.1 0.00 0.49 0.49 92 1014.3
20260831193056 60 248 1.7 7.0 0.00 0.49 0.49 92 1014.1
20260831191553 60 248 3.5 6.1 0.00 0.49 0.49 92 1013.9
20260831190104 60 240 2.6 7.0 0.00 0.49 0.49 92 1013.6
20260831184551 60 245 2.6 7.8 0.00 0.49 0.49 92 1013.5
20260831183048 60 248 3.5 9.6 0.03 0.49 0.49 92 1013.3
20260831181547 60 227 1.7 7.0 0.03 0.49 0.49 91 1013.0
20260831180054 60 242 3.5 12.2 0.03 0.49 0.49 90 1012.6
20260831174539 61 265 7.0 18.2 0.04 0.48 0.48 89 1012.7
20260831173036 62 275 0.9 5.2 0.02 0.46 0.46 89 1012.3
20260831171535 62 242 1.7 8.7 0.09 0.46 0.46 89 1012.1
20260831170033 62 239 3.5 7.8 0.09 0.46 0.46 88 1012.1
20260831164534 63 307 0.9 3.5 0.07 0.44 0.44 88 1011.9
20260831163031 64 307 1.7 4.3 0.07 0.44 0.44 87 1011.8
20260831161529 63 242 1.7 6.1 0.00 0.37 0.37 86 1011.4
20260831160031 63 252 2.6 10.4 0.00 0.37 0.37 85 1011.4
20260831154527 63 266 4.3 12.2 0.01 0.37 0.37 86 1011.2
20260831153025 63 234 4.3 11.3 0.02 0.37 0.37 88 1011.0
20260831151528 63 224 3.5 11.3 0.21 0.37 0.37 91 1010.8
20260831150023 62 236 5.2 13.0 0.23 0.37 0.37 91 1010.7
20260831144523 61 226 3.5 6.1 0.22 0.36 0.36 88 1010.9
20260831143021 63 265 2.6 9.6 0.20 0.35 0.35 84 1010.5
20260831141519 66 243 3.5 7.8 0.01 0.15 0.16 75 1010.2
20260831140025 70 252 6.1 13.9 0.00 0.14 0.14 70 1010.2
20260831134519 70 246 3.5 7.8 0.02 0.14 0.14 74 1009.6
20260831133020 70 240 4.3 10.4 0.13 0.14 0.14 79 1009.7
20260831131516 66 234 2.6 8.7 0.13 0.14 0.14 89 1009.5
20260831130015 64 219 4.3 10.4 0.13 0.14 0.14 90 1009.8
20260831124518 64 213 7.8 21.7 0.11 0.12 0.12 81 1010.3
20260831123011 70 261 6.1 12.2 0.00 0.01 0.01 63 1009.4
20260831121510 70 186 7.0 12.2 0.00 0.01 0.01 63 1009.3
20260831120011 70 237 6.1 10.4 0.00 0.01 0.01 65 1009.5
20260831114509 70 223 4.3 12.2 0.01 0.01 0.01 67 1009.6
20260831113009 69 225 6.1 13.9 0.01 0.01 0.01 71 1009.8
20260831111508 67 242 5.2 9.6 0.01 0.01 0.01 81 1009.7
20260831110007 66 219 7.0 21.7 0.01 0.01 0.01 76 1009.8
20260831104507 70 236 7.8 17.4 0.00 0.00 0.00 61 1009.4
20260831103006 69 215 5.2 13.9 0.00 0.00 0.00 62 1009.3
20260831101509 70 206 7.8 14.8 0.00 0.00 0.00 60 1009.2
20260831100004 70 232 7.0 16.5 0.00 0.00 0.00 61 1009.3
20260831094502 69 249 7.0 14.8 0.00 0.00 0.00 65 1009.3
20260831093100 69 219 7.0 13.0 0.00 0.00 0.00 67 1009.4
20260831091604 68 230 7.8 15.6 0.00 0.00 0.00 67 1009.7
20260831090058 69 211 7.8 22.6 0.00 0.00 0.00 61 1009.4
20260831084600 69 256 6.1 13.0 0.00 0.00 0.00 60 1009.4
20260831083053 69 209 8.7 18.2 0.00 0.00 0.00 61 1009.4
20260831081600 69 214 7.8 13.9 0.00 0.00 0.00 63 1009.6
20260831080113 68 218 8.7 17.4 0.00 0.00 0.00 68 1009.3
20260831074550 67 244 5.2 12.2 0.00 0.00 0.00 72 1009.3
20260831073108 67 207 6.1 13.0 0.00 0.00 0.00 75 1009.3
20260831071550 66 225 5.2 9.6 0.00 0.00 0.00 77 1009.3
20260831070039 65 210 3.5 8.7 0.00 0.00 0.00 80 1009.4
20260831064541 64 172 4.3 9.6 0.00 0.00 0.00 83 1009.3
20260831063042 63 207 2.6 7.0 0.00 0.00 0.00 83 1009.3
20260831061535 63 186 2.6 7.0 0.00 0.00 0.00 84 1009.2
20260831060034 62 186 4.3 6.1 0.00 0.00 0.00 86 1009.1
20260831054530 61 203 2.6 5.2 0.00 0.00 0.00 87 1009.0
20260831053025 61 205 2.6 4.3 0.00 0.00 0.00 87 1009.0
20260831051525 61 209 1.7 4.3 0.00 0.00 0.00 86 1009.1
20260831050017 61 214 2.6 5.2 0.00 0.00 0.00 85 1009.1
20260831044516 61 217 2.6 6.1 0.00 0.00 0.00 85 1008.9
20260831043014 61 217 3.5 7.0 0.00 0.00 0.00 86 1008.8
20260831041513 61 182 3.5 6.1 0.00 0.00 0.00 87 1008.6